GW3255 Weather Reports


time (UTC)temp
C
wind
direction
speed
KPH
gust
KPH
rain 1hr
cm
rain 24hr
cm
rain mn
cm
humidity
%
barometer
mb
20260505083043 13 219 1.6 6.4 0.00 0.00 0.00 75 1010.8
20260505081527 13 236 3.2 8.0 0.00 0.00 0.00 73 1010.7
20260505080034 13 255 3.2 6.4 0.00 0.00 0.00 71 1010.8
20260505074505 14 230 3.2 6.4 0.00 0.00 0.00 70 1010.6
20260505073008 13 245 4.8 8.0 0.00 0.00 0.00 72 1010.4
20260505071504 14 248 0.0 4.8 0.00 0.00 0.00 72 1010.3
20260505070007 14 247 1.6 8.0 0.00 0.00 0.00 71 1010.3
20260505064508 13 274 1.6 4.8 0.00 0.00 0.00 75 1010.2
20260505063007 12 150 0.0 0.0 0.00 0.00 0.00 76 1010.6
20260505061507 12 168 0.0 0.0 0.00 0.00 0.00 76 1010.7
20260505060003 13 169 0.0 1.6 0.00 0.00 0.00 75 1010.7
20260505054503 12 245 0.0 1.6 0.00 0.00 0.00 76 1010.6
20260505053005 12 245 0.0 1.6 0.00 0.00 0.00 75 1010.8
20260505051511 12 245 0.0 1.6 0.00 0.00 0.00 74 1010.6
20260505041509 15 247 0.0 6.4 0.00 0.00 0.00 66 1010.6
20260505040006 15 231 1.6 6.4 0.00 0.00 0.00 65 1010.4
20260505034504 15 221 1.6 4.8 0.00 0.00 0.00 64 1010.3
20260505033012 15 253 3.2 6.4 0.00 0.00 0.00 63 1010.3
20260505031515 14 228 0.0 3.2 0.00 0.00 0.00 65 1010.3
20260505030016 13 223 0.0 4.8 0.00 0.00 0.00 67 1010.5
20260505024514 14 228 0.0 1.6 0.00 0.00 0.00 65 1010.4
20260505023009 15 229 0.0 4.8 0.00 0.00 0.00 62 1010.4
20260505021509 15 245 1.6 4.8 0.00 0.00 0.00 60 1010.4
20260505020008 15 148 0.0 4.8 0.00 0.00 0.00 60 1010.6
20260505014529 16 248 4.8 8.0 0.00 0.00 0.00 59 1010.6
20260505013026 16 259 6.4 9.7 0.00 0.00 0.00 58 1010.6
20260505011526 16 232 6.4 12.9 0.00 0.00 0.00 56 1010.3
20260505010017 16 278 8.0 14.5 0.00 0.00 0.00 55 1010.1
20260505004516 16 250 6.4 14.5 0.00 0.00 0.00 54 1010.1
20260505003011 17 261 8.0 19.3 0.00 0.00 0.00 52 1010.1
20260505001510 17 246 9.7 22.5 0.00 0.00 0.00 49 1010.0
20260505000026 18 266 9.7 17.7 0.00 0.00 0.00 47 1009.9
20260504234519 18 236 8.0 25.7 0.00 0.00 0.00 45 1010.0
20260504233020 18 256 9.7 16.1 0.00 0.00 0.00 45 1009.9
20260504231519 18 271 6.4 12.9 0.00 0.00 0.00 46 1010.1
20260504230019 19 248 6.4 16.1 0.00 0.00 0.00 45 1010.0
20260504224517 20 158 9.7 22.5 0.00 0.00 0.00 44 1010.0
20260504223015 20 179 4.8 11.3 0.00 0.00 0.00 44 1010.0
20260504221514 20 275 14.5 25.7 0.00 0.00 0.00 41 1010.0
20260504220006 21 233 4.8 17.7 0.00 0.00 0.00 42 1010.0
20260504214506 21 216 8.0 20.9 0.00 0.00 0.00 40 1010.0
20260504213010 21 257 9.7 17.7 0.00 0.00 0.00 42 1010.0
20260504211508 21 164 9.7 24.1 0.00 0.00 0.00 38 1010.0
20260504210020 21 251 11.3 22.5 0.00 0.00 0.00 40 1009.9
20260504204518 21 217 8.0 20.9 0.00 0.00 0.00 39 1010.0
20260504203016 21 280 14.5 20.9 0.00 0.00 0.00 39 1010.0
20260504201512 22 251 8.0 20.9 0.00 0.00 0.00 37 1010.1
20260504200010 21 245 11.3 24.1 0.00 0.00 0.00 36 1010.4
20260504194508 21 258 12.9 17.7 0.00 0.00 0.00 36 1010.6
20260504193003 22 245 8.0 22.5 0.00 0.00 0.00 39 1010.8
20260504191526 21 259 14.5 27.4 0.00 0.00 0.00 36 1010.9
20260504190020 21 257 12.9 25.7 0.00 0.00 0.00 37 1011.1
20260504184523 21 266 11.3 25.7 0.00 0.00 0.00 39 1011.3
20260504183015 21 225 9.7 20.9 0.00 0.00 0.00 36 1011.3
20260504181514 21 248 4.8 20.9 0.00 0.00 0.00 38 1011.3
20260504180014 20 250 11.3 17.7 0.00 0.00 0.00 38 1011.7
20260504174508 21 252 16.1 24.1 0.00 0.00 0.00 39 1011.9
20260504173004 20 274 8.0 20.9 0.00 0.00 0.00 38 1012.0
20260504171524 20 245 9.7 24.1 0.00 0.00 0.00 39 1012.3